一网星座-0430星 (ONEWEB-0430 )

导读

ONEWEB-0430是英国OneWeb低轨卫星互联网星座的组成卫星,由英国主导开发,于2021年12月27日发射入轨。该卫星运行于近地轨道,承担全球高速低延迟卫星互联网通信服务的组网任务,助力OneWeb实现覆盖全球的宽带互联网络构建,为偏远地区、海事、航空等场景提供可靠通信连接,是英国商业航天布局全球卫星互联网的重要节点。

基本信息
目录编号:
50501
目录名称:
ONEWEB-0430
国际标识:
2021-132AJ
轨道中心:
EARTH
卫星名称:
一网星座-0430星
卫星全名:
一网星座-0430星 (ONEWEB-0430 )
卫星状态:
在轨 (已飞行1630 天)
发射日期:
2021-12-27 UTC
国别 :
英国 (GB)
星等 :
--
轨道信息
数据来源 国际轨道数据
星历时间: 2026-06-14T05:54:41+0800
14小时前
查看轨道信息
半长轴: 7567.88km
偏心率: 0.0001745
轨道倾角: 87.916°
近地点辐角 100.620°
升交点赤经 336.109°
平近点角 259.513°
近地点: 1188.422km
远地点: 1191.064km
周期: 109.200分钟
每日圈数: 13.186862
详细信息
平衡模式:
三轴稳定
覆盖范围:
全球
运营商:
一网卫星公司
运营商所在国:
英国
制造商(研发单位):
一网卫星公司
制造商所在国:
英国
使用方式:
暂无
卫星简介
OneWeb卫星网络由648颗重约125公斤的微型卫星组成,运行在1200公里的轨道上。 每颗卫星都能够提供至少每秒8千兆位的吞吐量,以使用其高吞吐量的Ku频段有效载荷为家庭和移动平台提供互联网接入。该卫星仍在工作。
2D轨道图
3D轨道图
轨道高度分析图
轨道倾角分析图
轨道综合分析图
查看轨道综合分析图